Location: La Fredeussais
(48.1780°N, 1.3980°W)
Time: 15:28:37
(UTC+00:00)

Cosmos 1538 Rocket - Pass Details

Date: 09 May 2021
Orbit: 752 x 792 km, 74.0° (Epoch: 24 June)

Event Time Altitude Azimuth Distance (km) Brightness Sun altitude
Rises 21:18:03 0° 339° (NNW) 3,301 8.7 -14.7°
Reaches altitude 10° 21:20:30 10° 342° (NNW) 2,365 7.7 -15.0°
Maximum altitude 21:25:50 63° 64° (ENE) 876 4.2 -15.6°
Enters shadow 21:28:51 26° 138° (SE) 1,517 4.9 -15.9°
